{"data":{"norad_id":47355,"intl_designator":"2021-005G","name":"STARLINK-2047","alt_names":[],"object_type":"PAYLOAD","status":"ACTIVE","operator":null,"country":"US","launch_date":"2021-01-20","launch_site_code":"AFETR","launch_vehicle":null,"mission":null,"orbit_class":"UNKNOWN","rcs_meters":null,"size_class":null,"mass_kg":null,"dimensions":null,"purposes":["comms"],"wikipedia_slug":null,"has_3d_model":false,"image_url":null,"decayed_at":null,"tle_current":{"epoch":"2026-09-19T06:56:48.346080Z","epoch_age_seconds":126481,"freshness":"FRESH","line1":"1 47355U 21005G   26262.28944845 -.00000416  00000+0 -16300-5 0  9991","line2":"2 47355  53.1609 190.0145 0001206  92.7261 267.3878 15.31700951313411","mean_motion":15.31700951,"eccentricity":0.0001206,"inclination_deg":53.1609,"raan_deg":190.0145,"arg_perigee_deg":92.7261,"mean_anomaly_deg":267.3878,"bstar":-1.63e-6,"rev_number":31341,"period_min":94.013129590333,"perigee_km":469.91118612186,"apogee_km":471.56313456934,"semimajor_km":6848.8741603456,"source":"CELESTRAK","updated_at":"2026-09-20T09:00:38.589361Z"}}}